Santa Monica, CA

11:38 PM PDT on May 23, 2017 (GMT -0700)
Santa Monica Municipal

Weather History for KSMO - April, 2013

Change the Weather History Date:

Sunday, April 28, 2013

  Actual Average Record
Temperature  
Mean Temperature 62 °F -  
Max Temperature 66 °F 73 °F 90 °F (2008)
Min Temperature 57 °F 53 °F 41 °F (1970)
Degree Days  
Heating Degree Days 4    
Growing Degree Days 12 (Base 50)    
Moisture  
Dew Point 54 °F    
Average Humidity 81    
Maximum Humidity 89    
Minimum Humidity 68    
Precipitation  
Precipitation 0.00 in - - ()
Sea Level Pressure  
Sea Level Pressure 29.95 in    
Wind  
Wind Speed 2 mph (SW)    
Max Wind Speed 10 mph    
Max Gust Speed -    
Visibility 6 miles    
Events      
Averages and records for this station are not official NWS values.
T = Trace of Precipitation, MM = Missing Value Source: NWS Daily Summary

Daily Weather History Graph

Daily Weather History Graph

Search for Another Location

Airport or City:

Trip Planner

Search our weather history database for the weather conditions in past years. The results will help you decide how hot, cold, wet, or windy it might be!

Date:

Astronomy

Apr. 28, 2013 Rise Set
Actual Time 6:07 AM PDT 7:35 PM PDT
Civil Twilight 5:40 AM PDT 8:02 PM PDT
Nautical Twilight 5:09 AM PDT 8:33 PM PDT
Astronomical Twilight 4:35 AM PDT 9:07 PM PDT
Moon 11:05 PM PDT (4/28) 8:33 AM PDT (4/28)
Length of Visible Light 14h 21m
Length of Day
13h 28m
Waning Gibbous, 88% of the Moon is Illuminated
Apr 28
Waning Gibbous
May 2
Last Quarter
May 9
New
May 17
First Quarter
May 24
Full

Hourly Weather History & Observations

Time (PDT) Temp. Dew Point Humidity Pressure Visibility Wind Dir Wind Speed Gust Speed Precip Events Conditions
12:51 AM 59.0 °F 55.0 °F 87% 30.03 in 9.0 mi Calm Calm - N/A   Overcast
1:51 AM 59.0 °F 54.0 °F 83% 30.01 in 8.0 mi Calm Calm - N/A   Mostly Cloudy
2:16 AM 59.0 °F 53.6 °F 82% 30.01 in 8.0 mi Calm Calm - N/A   Partly Cloudy
2:51 AM 57.9 °F 54.0 °F 87% 30.01 in 9.0 mi Calm Calm - N/A   Clear
3:26 AM 57.2 °F 53.6 °F 88% 30.00 in 8.0 mi Calm Calm - N/A   Scattered Clouds
3:34 AM 57.2 °F 53.6 °F 88% 30.00 in 8.0 mi Calm Calm - N/A   Mostly Cloudy
3:51 AM 57.0 °F 53.1 °F 87% 30.00 in 8.0 mi Calm Calm - N/A   Overcast
4:51 AM 57.9 °F 54.0 °F 87% 30.00 in 6.0 mi Calm Calm - N/A   Overcast
5:51 AM 57.9 °F 54.0 °F 87% 29.99 in 5.0 mi Calm Calm - N/A   Overcast
6:51 AM 59.0 °F 54.0 °F 83% 30.00 in 4.0 mi Calm Calm - N/A   Haze
7:51 AM 59.0 °F 54.0 °F 83% 30.01 in 4.0 mi ESE 3.5 mph - N/A   Haze
8:51 AM 60.1 °F 54.0 °F 80% 30.00 in 4.0 mi Calm Calm - N/A   Haze
9:51 AM 63.0 °F 55.0 °F 75% 29.99 in 5.0 mi Calm Calm - N/A   Haze
10:00 AM 64.4 °F 53.6 °F 68% 29.99 in 5.0 mi Calm Calm - N/A   Haze
10:51 AM 66.0 °F 55.0 °F 68% 29.99 in 6.0 mi SW 5.8 mph - N/A   Haze
11:51 AM 64.9 °F 55.0 °F 70% 29.98 in 5.0 mi SW 8.1 mph - N/A   Haze
12:51 PM 64.9 °F 55.0 °F 70% 29.96 in 5.0 mi WSW 8.1 mph - N/A   Haze
1:51 PM 64.9 °F 55.0 °F 70% 29.94 in 5.0 mi SW 10.4 mph - N/A   Haze
2:51 PM 64.9 °F 55.0 °F 70% 29.92 in 5.0 mi SW 9.2 mph - N/A   Haze
3:42 PM 64.4 °F 55.4 °F 73% 29.90 in 6.0 mi WSW 8.1 mph - N/A   Haze
3:51 PM 64.0 °F 55.0 °F 73% 29.90 in 6.0 mi WSW 9.2 mph - N/A   Haze
4:51 PM 63.0 °F 55.0 °F 75% 29.89 in 7.0 mi WSW 9.2 mph - N/A   Mostly Cloudy
5:05 PM 62.6 °F 55.4 °F 77% 29.89 in 8.0 mi SW 9.2 mph - N/A   Mostly Cloudy
5:51 PM 60.1 °F 55.0 °F 83% 29.88 in 7.0 mi WSW 10.4 mph - N/A   Overcast
6:51 PM 59.0 °F 54.0 °F 83% 29.88 in 7.0 mi WSW 4.6 mph - N/A   Overcast
7:22 PM 57.2 °F 53.6 °F 88% 29.88 in 6.0 mi West 4.6 mph - N/A   Overcast
7:51 PM 57.9 °F 54.0 °F 87% 29.88 in 7.0 mi Variable 3.5 mph - N/A   Overcast
8:51 PM 57.9 °F 54.0 °F 87% 29.89 in 7.0 mi SW 4.6 mph - N/A   Overcast
9:51 PM 57.0 °F 54.0 °F 89% 29.90 in 5.0 mi Calm Calm - N/A   Overcast
10:51 PM 57.0 °F 54.0 °F 89% 29.91 in 5.0 mi SSW 4.6 mph - N/A   Overcast
11:51 PM 57.0 °F 54.0 °F 89% 29.91 in 5.0 mi South 3.5 mph - N/A   Overcast